Sarasota, FL

4:22 PM EST on December 18, 2017 (GMT -0500)
Sarasota-bradenton

Weather History for KSRQ - December, 2013

Change the Weather History Date:

Tuesday, December 31, 2013

  Actual Average Record
Temperature  
Mean Temperature 64 °F 61 °F  
Max Temperature 68 °F 71 °F 87 °F (1990)
Min Temperature 60 °F 52 °F 29 °F (1926)
Degree Days  
Heating Degree Days 1 5  
Month to date heating degree days 24 120  
Since 1 July heating degree days 42 155  
Cooling Degree Days 0 2  
Month to date cooling degree days 157 74  
Year to date cooling degree days 3785 3374  
Growing Degree Days 14 (Base 50)    
Moisture  
Dew Point 51 °F    
Average Humidity 64    
Maximum Humidity 90    
Minimum Humidity 49    
Precipitation  
Precipitation 0.00 in 0.07 in 3.12 in (2002)
Month to date precipitation 0.21 2.53  
Year to date precipitation 52.67 53.01  
Sea Level Pressure  
Sea Level Pressure 30.22 in    
Wind  
Wind Speed 8 mph (NE)    
Max Wind Speed 15 mph    
Max Gust Speed 18 mph    
Visibility 10 miles    
Events      
T = Trace of Precipitation, MM = Missing Value Source: NWS Daily Summary

Daily Weather History Graph

Daily Weather History Graph

Search for Another Location

Airport or City:

Trip Planner

Search our weather history database for the weather conditions in past years. The results will help you decide how hot, cold, wet, or windy it might be!

Date:

Astronomy

Dec. 31, 2013 Rise Set
Actual Time 7:20 AM EST 5:46 PM EST
Civil Twilight 6:54 AM EST 6:12 PM EST
Nautical Twilight 6:25 AM EST 6:41 PM EST
Astronomical Twilight 5:56 AM EST 7:09 PM EST
Moon 6:15 AM EST (12/31) 5:17 PM EST (12/31)
Length of Visible Light 11h 17m
Length of Day
10h 26m
Waning Crescent, 1% of the Moon is Illuminated
Dec 31
Waning Crescent
Jan 1
New
Jan 7
First Quarter
Jan 15
Full
Jan 24
Last Quarter

Hourly Weather History & Observations

Time (EST) Temp. Dew Point Humidity Pressure Visibility Wind Dir Wind Speed Gust Speed Precip Events Conditions
12:53 AM 63.0 °F 57.9 °F 84% 30.18 in 10.0 mi NNE 4.6 mph - N/A   Partly Cloudy
1:53 AM 62.1 °F 57.0 °F 84% 30.17 in 10.0 mi NE 3.5 mph - N/A   Partly Cloudy
2:53 AM 62.1 °F 57.0 °F 84% 30.15 in 10.0 mi ENE 6.9 mph - N/A   Mostly Cloudy
3:53 AM 62.1 °F 57.0 °F 84% 30.16 in 10.0 mi NNE 6.9 mph - N/A   Partly Cloudy
4:53 AM 61.0 °F 57.0 °F 87% 30.19 in 10.0 mi North 6.9 mph - N/A   Partly Cloudy
5:53 AM 61.0 °F 55.9 °F 83% 30.20 in 10.0 mi NNE 5.8 mph - N/A   Clear
6:53 AM 61.0 °F 51.1 °F 70% 30.23 in 10.0 mi NE 6.9 mph - N/A   Clear
7:53 AM 60.1 °F 51.1 °F 72% 30.25 in 10.0 mi NNE 8.1 mph - N/A   Mostly Cloudy
8:53 AM 62.1 °F 48.9 °F 62% 30.27 in 10.0 mi NE 8.1 mph - N/A   Partly Cloudy
9:53 AM 63.0 °F 48.9 °F 60% 30.28 in 10.0 mi NE 11.5 mph - N/A   Clear
10:53 AM 64.0 °F 48.9 °F 58% 30.28 in 10.0 mi NE 9.2 mph - N/A   Clear
11:53 AM 66.9 °F 50.0 °F 54% 30.27 in 10.0 mi NE 8.1 mph - N/A   Clear
12:53 PM 66.9 °F 48.9 °F 52% 30.23 in 10.0 mi ENE 11.5 mph - N/A   Clear
1:53 PM 68.0 °F 48.0 °F 49% 30.20 in 10.0 mi ENE 11.5 mph - N/A   Overcast
2:53 PM 68.0 °F 50.0 °F 52% 30.20 in 10.0 mi NE 10.4 mph - N/A   Overcast
3:53 PM 68.0 °F 50.0 °F 52% 30.21 in 10.0 mi NE 9.2 mph - N/A   Overcast
4:53 PM 66.9 °F 48.9 °F 52% 30.22 in 10.0 mi ENE 4.6 mph - N/A   Overcast
5:53 PM 66.0 °F 50.0 °F 56% 30.21 in 10.0 mi ENE 6.9 mph - N/A   Overcast
6:53 PM 66.0 °F 48.9 °F 54% 30.24 in 10.0 mi NE 4.6 mph - N/A   Overcast
7:53 PM 64.9 °F 48.9 °F 56% 30.25 in 10.0 mi NE 8.1 mph - N/A   Overcast
8:53 PM 64.9 °F 48.9 °F 56% 30.25 in 10.0 mi NE 6.9 mph - N/A   Overcast
9:53 PM 64.9 °F 48.9 °F 56% 30.24 in 10.0 mi ENE 8.1 mph - N/A   Mostly Cloudy
10:53 PM 64.9 °F 50.0 °F 58% 30.25 in 10.0 mi NNE 6.9 mph - N/A   Overcast
11:53 PM 64.0 °F 51.1 °F 63% 30.23 in 10.0 mi ENE 8.1 mph - N/A   Overcast